Saint Ignace, MI

3:56 AM EST on December 04, 2016 (GMT -0500)
Mackinac Island

Weather History for KMCD - June, 2014

Change the Weather History Date:

Thursday, June 12, 2014

  Actual Average Record
Temperature  
Mean Temperature 56 °F -  
Max Temperature 62 °F 64 °F 82 °F (1983)
Min Temperature 50 °F 49 °F 34 °F (1980)
Degree Days  
Heating Degree Days 9    
Growing Degree Days 6 (Base 50)    
Moisture  
Dew Point 58 °F    
Average Humidity 98    
Maximum Humidity 100    
Minimum Humidity 90    
Precipitation  
Precipitation 0.02 in - - ()
Sea Level Pressure  
Sea Level Pressure 29.70 in    
Wind  
Wind Speed 5 mph (WSW)    
Max Wind Speed 17 mph    
Max Gust Speed 24 mph    
Visibility 5 miles    
Events Fog , Rain    
Averages and records for this station are not official NWS values.
T = Trace of Precipitation, MM = Missing Value Source: NWS Daily Summary

Daily Weather History Graph

Daily Weather History Graph

Search for Another Location

Airport or City:

Trip Planner

Search our weather history database for the weather conditions in past years. The results will help you decide how hot, cold, wet, or windy it might be!

Date:

Astronomy

Jun. 12, 2014 Rise Set
Actual Time 5:47 AM EDT 9:29 PM EDT
Civil Twilight 5:09 AM EDT 10:07 PM EDT
Nautical Twilight 4:18 AM EDT 10:58 PM EDT
Astronomical Twilight 3:08 AM EDT 12:08 AM EDT
Moon 8:56 PM EDT (6/12) 5:32 AM EDT (6/12)
Length of Visible Light 16h 57m
Length of Day
15h 41m
Full, 100% of the Moon is Illuminated
Jun 12
Full
Jun 13
Full
Jun 19
Last Quarter
Jun 27
New
Jul 5
First Quarter

Hourly Weather History & Observations

Time (EDT) Temp. Dew Point Humidity Pressure Visibility Wind Dir Wind Speed Gust Speed Precip Events Conditions
12:19 AM 58.8 °F 58.8 °F 100% 29.77 in 2.5 mi North 3.5 mph - N/A   Overcast
12:40 AM 59.0 °F 59.0 °F 100% 29.76 in 1.5 mi Calm Calm - N/A Rain Rain
12:59 AM 59.2 °F 59.2 °F 100% 29.76 in 1.0 mi NE 5.8 mph - 0.01 in   Drizzle
1:19 AM 59.2 °F 59.2 °F 100% 29.74 in 0.8 mi NE 6.9 mph - N/A   Light Drizzle
1:40 AM 59.2 °F 59.2 °F 100% 29.74 in 0.5 mi North 3.5 mph - N/A   Drizzle
1:59 AM 59.2 °F 59.2 °F 100% 29.74 in 0.5 mi NE 3.5 mph - N/A   Drizzle
2:19 AM 59.2 °F 59.2 °F 100% 29.73 in 0.5 mi Calm Calm - 0.01 in Fog Fog
2:39 AM 59.2 °F 59.2 °F 100% 29.73 in 0.8 mi Calm Calm - 0.01 in   Overcast
2:59 AM 59.2 °F 59.2 °F 100% 29.73 in 2.0 mi Calm Calm - 0.01 in   Overcast
3:19 AM 59.4 °F 59.4 °F 100% 29.72 in 2.5 mi NNE 3.5 mph - N/A   Overcast
3:39 AM 59.4 °F 59.4 °F 100% 29.72 in 1.0 mi NE 5.8 mph - N/A   Overcast
3:59 AM 59.5 °F 59.5 °F 100% 29.71 in 0.5 mi NE 5.8 mph - N/A Fog Fog
4:20 AM 59.9 °F 59.9 °F 100% 29.71 in 0.5 mi ENE 6.9 mph - N/A Fog Fog
4:39 AM 59.5 °F 59.5 °F 100% 29.71 in 0.5 mi Calm Calm - N/A Fog Fog
4:59 AM 59.4 °F 59.4 °F 100% 29.70 in 0.5 mi Calm Calm - N/A Fog Fog
5:20 AM 59.2 °F 59.2 °F 100% 29.69 in 0.2 mi Calm Calm - N/A Fog Fog
5:39 AM 59.2 °F 59.2 °F 100% 29.70 in 0.5 mi Calm Calm - N/A Fog Fog
5:59 AM 59.4 °F 59.4 °F 100% 29.69 in 0.5 mi Calm Calm - N/A Fog Fog
6:20 AM 58.5 °F 58.5 °F 100% 29.70 in 0.2 mi Calm Calm - N/A Fog Fog
6:39 AM 58.3 °F 58.3 °F 100% 29.71 in 0.5 mi Calm Calm - N/A Fog Fog
6:59 AM 58.6 °F 58.6 °F 100% 29.72 in 0.2 mi WSW 3.5 mph - N/A Fog Fog
7:20 AM 58.8 °F 58.8 °F 100% 29.72 in 0.2 mi West 3.5 mph - N/A Fog Fog
7:39 AM 58.8 °F 58.8 °F 100% 29.69 in 0.2 mi Calm Calm - N/A Fog Fog
7:59 AM 59.7 °F 59.7 °F 100% 29.68 in 0.2 mi Calm Calm - N/A Fog Fog
8:20 AM 60.1 °F 60.1 °F 100% 29.68 in 0.2 mi Calm Calm - N/A Fog Fog
8:39 AM 60.1 °F 60.1 °F 100% 29.68 in 0.8 mi Calm Calm - N/A   Overcast
9:00 AM 60.1 °F 60.1 °F 100% 29.68 in 0.5 mi Calm Calm - N/A Fog Fog
9:19 AM 59.4 °F 59.4 °F 100% 29.69 in 0.2 mi WSW 3.5 mph - N/A Fog Fog
9:39 AM 58.3 °F 58.3 °F 100% 29.69 in 0.2 mi WSW 4.6 mph - N/A Fog Fog
10:39 AM 59.0 °F 59.0 °F 100% 29.70 in 1.0 mi WSW 4.6 mph - N/A   Overcast
11:00 AM 59.2 °F 59.2 °F 100% 29.71 in 3.0 mi WSW 8.1 mph - N/A   Overcast
11:19 AM 58.6 °F 58.6 °F 100% 29.71 in 0.5 mi WSW 5.8 mph - N/A Fog Fog
11:39 AM 58.6 °F 58.6 °F 100% 29.70 in 0.2 mi WSW 6.9 mph - N/A Fog Fog
12:00 PM 59.7 °F 59.7 °F 100% 29.71 in 5.0 mi WSW 6.9 mph - N/A   Overcast
12:19 PM 59.9 °F 59.9 °F 100% 29.71 in 10.0 mi WSW 5.8 mph - N/A   Overcast
12:39 PM 61.3 °F 61.3 °F 100% 29.70 in 10.0 mi WSW 8.1 mph - N/A   Overcast
1:00 PM 62.1 °F 62.1 °F 100% 29.70 in 10.0 mi WSW 8.1 mph - N/A   Overcast
1:19 PM 62.6 °F 61.7 °F 97% 29.70 in 10.0 mi West 9.2 mph - N/A   Overcast
1:40 PM 62.2 °F 61.9 °F 99% 29.70 in 10.0 mi WSW 9.2 mph 17.3 mph N/A   Overcast
1:59 PM 61.7 °F 61.3 °F 99% 29.69 in 5.0 mi WSW 10.4 mph 20.7 mph N/A   Mostly Cloudy
2:20 PM 61.9 °F 61.2 °F 97% 29.69 in 10.0 mi WSW 13.8 mph 19.6 mph N/A   Overcast
2:40 PM 60.3 °F 59.7 °F 98% 29.70 in 10.0 mi WSW 11.5 mph 18.4 mph N/A   Overcast
2:59 PM 59.7 °F 59.4 °F 99% 29.69 in 7.0 mi WSW 10.4 mph 19.6 mph N/A   Overcast
3:20 PM 61.2 °F 59.9 °F 96% 29.68 in 10.0 mi WSW 9.2 mph 20.7 mph N/A   Mostly Cloudy
3:40 PM 61.9 °F 59.5 °F 92% 29.68 in 10.0 mi WSW 12.7 mph 24.2 mph N/A   Scattered Clouds
3:59 PM 61.3 °F 58.8 °F 91% 29.68 in 10.0 mi WSW 12.7 mph 19.6 mph N/A   Scattered Clouds
4:20 PM 61.5 °F 58.6 °F 90% 29.68 in 10.0 mi WSW 10.4 mph 20.7 mph N/A   Clear
4:39 PM 60.8 °F 58.1 °F 91% 29.68 in 10.0 mi West 15.0 mph 20.7 mph N/A   Scattered Clouds
4:59 PM 60.3 °F 57.7 °F 91% 29.68 in 10.0 mi West 17.3 mph 20.7 mph N/A   Mostly Cloudy
5:20 PM 59.4 °F 57.4 °F 93% 29.68 in 10.0 mi West 11.5 mph 21.9 mph N/A   Overcast
5:39 PM 58.5 °F 56.8 °F 94% 29.68 in 10.0 mi WSW 9.2 mph 18.4 mph N/A   Overcast
5:59 PM 59.0 °F 57.2 °F 94% 29.68 in 10.0 mi WSW 5.8 mph - N/A   Mostly Cloudy
6:20 PM 57.7 °F 56.7 °F 96% 29.67 in 10.0 mi WSW 6.9 mph - N/A   Overcast
6:39 PM 59.7 °F 58.1 °F 94% 29.66 in 10.0 mi West 9.2 mph - N/A   Mostly Cloudy
7:00 PM 59.5 °F 57.6 °F 93% 29.67 in 10.0 mi West 13.8 mph - N/A   Mostly Cloudy
7:20 PM 58.3 °F 56.8 °F 95% 29.68 in 10.0 mi West 11.5 mph - N/A   Mostly Cloudy
7:39 PM 57.7 °F 56.1 °F 94% 29.68 in 10.0 mi West 12.7 mph 19.6 mph N/A   Overcast
8:00 PM 56.7 °F 55.4 °F 96% 29.68 in 10.0 mi West 9.2 mph 16.1 mph N/A   Overcast
8:20 PM 56.3 °F 55.4 °F 97% 29.68 in 10.0 mi West 9.2 mph - N/A   Overcast
8:39 PM 56.5 °F 55.6 °F 97% 29.68 in 10.0 mi West 9.2 mph - N/A   Overcast
9:00 PM 56.3 °F 55.6 °F 97% 29.68 in 10.0 mi West 13.8 mph 17.3 mph N/A   Overcast
9:20 PM 55.2 °F 54.7 °F 98% 29.68 in 7.0 mi West 12.7 mph 19.6 mph N/A   Overcast
9:39 PM 53.2 °F 53.2 °F 100% 29.68 in 5.0 mi WSW 6.9 mph - N/A   Overcast
10:00 PM 52.3 °F 52.3 °F 100% 29.69 in 0.8 mi WSW 4.6 mph - N/A   Overcast
10:20 PM 51.8 °F 51.8 °F 100% 29.69 in 0.5 mi SW 8.1 mph - N/A Fog Fog
10:40 PM 51.3 °F 51.3 °F 100% 29.69 in 0.8 mi SW 10.4 mph - N/A   Overcast
11:00 PM 50.5 °F 50.5 °F 100% 29.70 in 10.0 mi SW 6.9 mph - N/A   Overcast
11:19 PM 50.2 °F 50.2 °F 100% 29.70 in 10.0 mi SW 4.6 mph - N/A   Overcast
11:40 PM 50.0 °F 49.6 °F 99% 29.70 in 10.0 mi SW 10.4 mph - N/A   Overcast
11:59 PM 50.0 °F 49.6 °F 99% 29.70 in 10.0 mi SW 9.2 mph - N/A   Scattered Clouds